Location: Unspecified
(0.0000°N, 0.0000°E)
Time: 20:36:37
(UTC+00:00)

Transit 4A - Pass Details

Date: 28 May 2022
Orbit: 864 x 980 km, 66.8° (Epoch: 26 June)

Event Time Altitude Azimuth Distance (km) Brightness Sun altitude
Rises 14:59:46 0° 301° (WNW) 3,512 11.8 40.6°
Reaches altitude 10° 15:04:12 10° 270° (W) 2,548 11.1 39.6°
Maximum altitude 15:06:11 12° 250° (WSW) 2,414 10.7 39.2°
Drops below altitude 10° 15:08:11 10° 230° (SW) 2,530 10.5 38.7°
Sets 15:12:34 0° 199° (SSW) 3,453 10.8 37.8°
